(45) Eugenia
ephemeris date magn radius delta ra dec elong phase
Today15 Jan 202513.52.896 AU3.150 AU00h10m-04°02'66.1°18.1°
Opposition13 Dec 202511.82.917 AU1.941 AU05h28m+14°09'170.9°3.1°
(45) Eugenia - 2025-01-15
astro.vanbuitenen.nl


 
-1 year
-1 month
-1 day
Now
+1 day
+1 month
+1 year

The interactive orbit chart above shows the body's path through the solar system and its position at the given date. Green and blue lines are shown perpendicular to the ecliptic plane: Green if the path is above the ecliptic plane, blue if it is below. (Left-click and drag to rotate the view; Right-click and drag to move the view; Use scroll wheel to zoom in our out.)

The orbital elements of Eugenia are:

            e (Eccentricity)                : 0.0829950
            a (Semimajor axis)              : 2.7196553
            i (Inclination)                 : 6.60581
            Ω (Longitude of ascending node) : 147.58415
            ω (Argument of perihelion)      : 87.33039
            M (Mean anomaly)                : 118.59878
            Epoch                           : 2024 Oct 17

            L (Longitude of perihelion)     : 234.89672
            B (Latitude of perihelion)      : 6.59861
            P (Orbital period in years)     : 4.49            
        

The light curve chart below shows the estimated development of the minor planet's magnitude.


The all-sky chart below shows the path of the minor planet over the same period as the light curve. The current position is marked yellow.





The following chart shows the path of the minor planet in the next few days. The field of view is optimized for (~10x50) binoculars and finderscopes. A more printer-friendly version of the same chart can be found below.




Ephemerides:
Date       Time       RA (2000)    DEC (2000)    delta   radius  elong  phase   PA    magn
2025-01-15 00:00 UT   00 10 28.3   -04 02 33     3.150    2.896   66.1   18.1    69   13.5 
2025-01-15 04:34 UT   00 10 40.8   -04 01 07     3.153    2.896   66.0   18.1    69   13.5 
2025-01-16 00:00 UT   00 11 33.9   -03 55 00     3.164    2.896   65.4   18.0    69   13.5 
2025-01-17 00:00 UT   00 12 39.9   -03 47 25     3.177    2.897   64.7   17.9    69   13.5 
2025-01-18 00:00 UT   00 13 46.5   -03 39 48     3.190    2.897   64.0   17.8    69   13.5 
2025-01-19 00:00 UT   00 14 53.5   -03 32 07     3.203    2.898   63.3   17.7    69   13.5 
2025-01-20 00:00 UT   00 16 01.0   -03 24 24     3.217    2.898   62.6   17.5    69   13.5 
2025-01-21 00:00 UT   00 17 09.0   -03 16 38     3.230    2.899   61.9   17.4    69   13.5 
2025-01-22 00:00 UT   00 18 17.5   -03 08 50     3.242    2.899   61.2   17.3    69   13.5 
2025-01-23 00:00 UT   00 19 26.4   -03 00 60     3.255    2.900   60.5   17.2    69   13.6 
2025-01-24 00:00 UT   00 20 35.8   -02 53 07     3.268    2.900   59.8   17.1    69   13.6 
2025-01-25 00:00 UT   00 21 45.6   -02 45 12     3.281    2.901   59.1   16.9    69   13.6 
2025-01-26 00:00 UT   00 22 55.9   -02 37 14     3.293    2.901   58.4   16.8    69   13.6 
2025-01-27 00:00 UT   00 24 06.6   -02 29 15     3.306    2.902   57.7   16.7    70   13.6 
2025-01-28 00:00 UT   00 25 17.7   -02 21 13     3.318    2.902   57.0   16.5    70   13.6 
2025-01-29 00:00 UT   00 26 29.2   -02 13 10     3.330    2.903   56.3   16.4    70   13.6 
2025-01-30 00:00 UT   00 27 41.2   -02 05 04     3.343    2.903   55.7   16.3    70   13.6 
2025-01-31 00:00 UT   00 28 53.5   -01 56 57     3.355    2.904   55.0   16.1    70   13.6 
2025-02-01 00:00 UT   00 30 06.3   -01 48 48     3.367    2.904   54.3   16.0    70   13.6 
2025-02-02 00:00 UT   00 31 19.4   -01 40 37     3.379    2.905   53.6   15.9    70   13.6 
2025-02-03 00:00 UT   00 32 32.9   -01 32 25     3.390    2.905   53.0   15.7    70   13.6 
2025-02-04 00:00 UT   00 33 46.8   -01 24 11     3.402    2.906   52.3   15.6    70   13.6 
2025-02-05 00:00 UT   00 35 01.1   -01 15 56     3.414    2.906   51.6   15.4    70   13.6 
2025-02-06 00:00 UT   00 36 15.7   -01 07 39     3.425    2.907   50.9   15.3    71   13.6 
2025-02-07 00:00 UT   00 37 30.6   +00 59 21     3.437    2.907   50.3   15.1    71   13.6 
2025-02-08 00:00 UT   00 38 45.9   +00 51 02     3.448    2.907   49.6   15.0    71   13.6 
2025-02-09 00:00 UT   00 40 01.6   +00 42 41     3.459    2.908   48.9   14.8    71   13.6 
2025-02-10 00:00 UT   00 41 17.5   +00 34 20     3.470    2.908   48.3   14.7    71   13.6 


    Terminology:
            
    delta:  distance between minor planet and earth in AU
    radius: distance between minor planet and sun in AU
    magn:   magnitude (brightness) estimate    
    ra:     right ascension in hours (24h = 360deg)
    dec:    declination in degrees
    elong:  elongation in degrees (angle sun-earth-minor planet)    
    phase:  phase angle in degrees (angle sun-minor planet-earth)        
    AU:     Astronomical Unit (mean distance between earth and sun: 149597870.7 km
    

Orbital elements provided by the MPC (Minor Planet Center).
Calculations by a modified version of AAPlus, a C# implementation of the AA+ project by PJ Naughter from the algorithms presented in the book "Astronomical Algorithms" by Jean Meeus.
NGC2000 dso catalog and star labels from VizieR as provided by the Strasbourg astronomical Data Center.
Tycho2 catalog from the ESO archive.